Change the Weather History Date:

Monday, June 3, 2013

  Actual Average Record
Temperature  
Mean Temperature 52 °F -  
Max Temperature 59 °F 68 °F 78 °F (2011)
Min Temperature 46 °F 52 °F 44 °F (2001)
Degree Days  
Heating Degree Days 12    
Growing Degree Days 2 (Base 50)    
Moisture  
Dew Point 43 °F    
Average Humidity 71    
Maximum Humidity 93    
Minimum Humidity 44    
Precipitation  
Precipitation 0.00 in - - ()
Sea Level Pressure  
Sea Level Pressure 30.39 in    
Wind  
Wind Speed 10 mph ()    
Max Wind Speed 16 mph    
Max Gust Speed -    
Visibility 6.0 miles    
Events      
Averages and records for this station are not official NWS values.
T = Trace of Precipitation, MM = Missing Value Source: Averaged Metar Reports

Daily Weather History Graph

Daily Weather History Graph

Search for Another Location

Airport or City:

Trip Planner

Search our weather history database for the weather conditions in past years. The results will help you decide how hot, cold, wet, or windy it might be!

Date:

Astronomy

Jun. 03, 2013 Rise Set
Actual Time 5:39 AM CEST 9:52 PM CEST
Civil Twilight 4:55 AM CEST 10:37 PM CEST
Nautical Twilight 3:51 AM CEST 11:41 PM CEST
Astronomical Twilight 2:18 AM CEST 1:13 AM CEST
Moon 2:59 AM CEST (6/3) 4:41 PM CEST (6/3)
Length of Visible Light 17h 41m
Length of Day
16h 13m
Waning Crescent, 24% of the Moon is Illuminated
Jun 3
Waning Crescent
Jun 8
New
Jun 16
First Quarter
Jun 23
Full
Jun 30
Last Quarter

Hourly Weather History & Observations

Time (CEST) Temp. Windchill Dew Point Humidity Pressure Visibility Wind Dir Wind Speed Gust Speed Precip Events Conditions
12:00 AM 48.2 °F - 44.6 °F 87% 30.39 in - NNE 8.1 mph - N/A   Clear
12:30 AM 48.2 °F - 44.6 °F 87% 30.39 in - North 9.2 mph - N/A   Clear
1:00 AM 48.2 °F - 44.6 °F 87% 30.39 in - North 10.4 mph - N/A   Clear
1:30 AM 46.4 °F 40.7 °F 44.6 °F 93% 30.39 in 6.2 mi North 12.7 mph - N/A   Scattered Clouds
2:00 AM 47 °F - 44 °F 84% 30.41 in 5 mi NNE 11.5 mph - -   Partly Cloudy
2:00 AM 46.4 °F 41.1 °F 44.6 °F 93% 30.39 in 5.0 mi NNE 11.5 mph - N/A   Scattered Clouds
2:30 AM 46.4 °F 42.4 °F 42.8 °F 87% 30.39 in 6.2 mi NE 8.1 mph - N/A   Overcast
3:00 AM 46.4 °F 41.5 °F 42.8 °F 87% 30.39 in 6.2 mi NE 10.4 mph - N/A   Overcast
3:30 AM 48.2 °F - 44.6 °F 87% 30.39 in 6.2 mi NE 9.2 mph - N/A   Overcast
4:00 AM 48.2 °F - 44.6 °F 87% 30.42 in 6.2 mi NE 6.9 mph - N/A   Overcast
4:30 AM 48.2 °F - 44.6 °F 87% 30.39 in 6.2 mi NNE 9.2 mph - N/A   Overcast
5:00 AM 48.2 °F - 44.6 °F 87% 30.39 in 5.0 mi NE 11.5 mph - N/A   Mostly Cloudy
5:30 AM 48.2 °F - 44.6 °F 87% 30.39 in 3.7 mi NNE 10.4 mph - N/A   Mostly Cloudy
6:00 AM 48.2 °F - 44.6 °F 87% 30.42 in 3.7 mi NE 6.9 mph - N/A   Overcast
6:30 AM 48.2 °F - 44.6 °F 87% 30.42 in 3.7 mi NNE 6.9 mph - N/A   Overcast
7:00 AM 48.2 °F - 44.6 °F 87% 30.42 in 3.1 mi NNE 6.9 mph - N/A   Overcast
7:30 AM 48.2 °F - 46.4 °F 93% 30.42 in 3.1 mi North 4.6 mph - N/A   Overcast
8:00 AM 50 °F - 46 °F 79% 30.44 in 5 mi North 6.9 mph - -   Partly Cloudy
8:00 AM 50.0 °F - 46.4 °F 87% 30.42 in 5.0 mi North 6.9 mph - N/A   Overcast
8:30 AM 50.0 °F - 44.6 °F 82% 30.42 in 5.0 mi North 6.9 mph - N/A   Overcast
8:49 AM 51.8 °F - 46.4 °F 82% 30.42 in 6.2 mi NNE 8.1 mph - N/A   Mostly Cloudy
9:00 AM 51.8 °F - 44.6 °F 76% 30.42 in 6.2 mi NE 9.2 mph - N/A   Mostly Cloudy
9:30 AM 53.6 °F - 44.6 °F 72% 30.42 in 6.2 mi NE 9.2 mph - N/A   Scattered Clouds
10:00 AM 53.6 °F - 41.0 °F 62% 30.42 in 6.2 mi NE 11.5 mph - N/A   Scattered Clouds
10:30 AM 53.6 °F - 42.8 °F 67% 30.42 in 6.2 mi NNE 10.4 mph - N/A   Mostly Cloudy
11:00 AM 53.6 °F - 41.0 °F 62% 30.42 in 6.2 mi ENE 12.7 mph - N/A   Mostly Cloudy
11:30 AM 55.4 °F - 39.2 °F 54% 30.42 in 6.2 mi NNE 10.4 mph - N/A   Mostly Cloudy
12:30 PM 55.4 °F - 41.0 °F 58% 30.42 in 6.2 mi NE 12.7 mph - N/A   Mostly Cloudy
1:00 PM 55.4 °F - 39.2 °F 54% 30.42 in 6.2 mi NE 12.7 mph - N/A   Mostly Cloudy
1:30 PM 55.4 °F - 39.2 °F 54% 30.42 in 6.2 mi NE 13.8 mph - N/A   Mostly Cloudy
2:00 PM 56 °F - 40 °F 44% 30.43 in 16 mi NE 12.7 mph - -   Mostly Cloudy
2:00 PM 57.2 °F - 39.2 °F 51% 30.42 in 6.2 mi NNE 12.7 mph - N/A   Mostly Cloudy
2:35 PM 57.2 °F - 39.2 °F 51% 30.42 in 6.2 mi NE 13.8 mph - N/A   Mostly Cloudy
3:00 PM 59.0 °F - 39.2 °F 48% 30.39 in 6.2 mi NE 12.7 mph - N/A   Mostly Cloudy
3:30 PM 57.2 °F - 39.2 °F 51% 30.39 in 6.2 mi NNE 12.7 mph - N/A   Mostly Cloudy
4:00 PM 59.0 °F - 39.2 °F 48% 30.39 in 6.2 mi NNE 12.7 mph - N/A   Mostly Cloudy
4:30 PM 59.0 °F - 41.0 °F 51% 30.39 in 6.2 mi NE 12.7 mph - N/A   Mostly Cloudy
5:00 PM 59.0 °F - 39.2 °F 48% 30.36 in 6.2 mi NE 15.0 mph - N/A   Mostly Cloudy
5:30 PM 57.2 °F - 41.0 °F 55% 30.36 in 6.2 mi NE 15.0 mph - N/A   Mostly Cloudy
6:00 PM 57.2 °F - 42.8 °F 59% 30.36 in 6.2 mi NNE 16.1 mph - N/A   Mostly Cloudy
6:30 PM 57.2 °F - 41.0 °F 55% 30.36 in 6.2 mi NNE 15.0 mph - N/A   Mostly Cloudy
7:00 PM 57.2 °F - 42.8 °F 59% 30.36 in 6.2 mi North 15.0 mph - N/A   Mostly Cloudy
7:30 PM 55.4 °F - 42.8 °F 63% 30.36 in 6.2 mi NNE 16.1 mph - N/A   Mostly Cloudy
8:00 PM 55 °F - 43 °F 53% 30.36 in 25 mi NNE 15.0 mph - -   Scattered Clouds
8:00 PM 55.4 °F - 42.8 °F 63% 30.36 in 6.2 mi NNE 15.0 mph - N/A   Mostly Cloudy
8:30 PM 55.4 °F - 42.8 °F 63% 30.36 in 6.2 mi NNE 13.8 mph - N/A   Mostly Cloudy
9:00 PM 53.6 °F - 42.8 °F 67% 30.36 in 6.2 mi NNE 12.7 mph - N/A   Mostly Cloudy
9:30 PM 53.6 °F - 42.8 °F 67% 30.36 in 6.2 mi NNE 13.8 mph - N/A   Mostly Cloudy
10:00 PM 51.8 °F - 42.8 °F 71% 30.36 in 6.2 mi NNE 11.5 mph - N/A   Mostly Cloudy
10:30 PM 51.8 °F - 42.8 °F 71% 30.36 in - NNE 11.5 mph - N/A   Clear
11:00 PM 50.0 °F - 44.6 °F 82% 30.36 in - NNE 10.4 mph - N/A   Clear
11:30 PM 50.0 °F - 44.6 °F 82% 30.36 in - NNE 10.4 mph - N/A   Clear